Regional Weather Roundup
Issued by NWS Little Rock, AR

Home | Current Version | Previous Version | Text Only | Print | Product List | Glossary Off
Versions: 1 2 3 4 5 6 7 8 9 10 11 12 13 14 15 16 17 18 19 20 21 22 23 24 25 26 27 28 29 30 31 32 33 34 35 36 37 38 39 40 41 42 43 44 45 46 47 48 49 50

478
ASUS44 KLZK 210305
RWRLZK

WEATHER ROUNDUP FOR ARKANSAS
NATIONAL WEATHER SERVICE LITTLE ROCK AR
900 PM CST MON FEB 20 2017

NOTE: "FAIR" INDICATES FEW OR NO CLOUDS BELOW 12,000 FEET WITH NO
SIGNIFICANT WEATHER AND/OR OBSTRUCTIONS TO VISIBILITY.

ARZ001-003-010-029-210400-
NORTHWEST ARKANSAS

CITY           SKY/WX    TMP DP  RH WIND       PRES   REMARKS
FAYETTEVILLE   CLOUDY    58  57  97 W3        29.95R
FORT SMITH     CLOUDY    59  57  93 CALM      29.92F
HARRISON       LGT RAIN  60  56  86 W3        29.96R
BENTONVILLE    CLOUDY    57  54  88 CALM      29.96R
ROGERS         CLOUDY    58  55  90 CALM      29.96R
SILOAM SPGS    CLOUDY    57  54  88 CALM      29.95R
HIGHFILL       CLOUDY    56  55  97 W7        29.95R
SPRINGDALE     CLOUDY    59  57  94 W3        29.97R
$$

ARZ004-005-016-210400-
NORTH CENTRAL ARKANSAS

CITY           SKY/WX    TMP DP  RH WIND       PRES   REMARKS
BATESVILLE     CLOUDY    63  61  94 E5        29.92R
FLIPPIN        CLOUDY    64  57  77 CALM      29.90S
MTN HOME       CLOUDY    61  60  97 CALM      29.91R
$$

ARZ040-041-210400-
WEST CENTRAL ARKANSAS

CITY           SKY/WX    TMP DP  RH WIND       PRES   REMARKS
MENA           CLOUDY    59  59 100 CALM      29.95R
MOUNT IDA      RAIN      59  58  96 CALM      29.92F
$$

ARZ009-017-025-026-028-210400-
NORTHEAST ARKANSAS

CITY           SKY/WX    TMP DP  RH WIND       PRES   REMARKS
CORNING        FAIR      59  55  88 SE6       29.92S
JONESBORO      CLOUDY    61  52  72 E3        29.93R
WALNUT RIDGE   CLOUDY    63  52  67 SE8       29.92R
BLYTHEVILLE    MOCLDY    69  53  56 SE13      29.94F
$$

ARZ022-023-033-042-044-210400-
CENTRAL ARKANSAS

CITY           SKY/WX    TMP DP  RH WIND       PRES   REMARKS
LITTLE ROCK    LGT RAIN  61  61 100 W6        29.93S
N LITTLE ROCK    N/A     61  59  94 W3        29.93S
JACKSONVILLE   RAIN      64  64  99 CALM      29.92R FOG
SEARCY         RAIN      64  64 100 SW6       29.96R
HOT SPRINGS    LGT RAIN  60  60 100 W6        29.95F
RUSSELLVILLE   CLOUDY    61  58  90 NW3       29.93S
CLINTON        DRIZZLE   63  63 100 CALM      29.93R
$$

ARZ036-210400-
EAST ARKANSAS

CITY           SKY/WX    TMP DP  RH WIND       PRES   REMARKS
WEST MEMPHIS   CLOUDY    70  54  56 SE16      29.92R
$$

ARZ050-053-066-070-073-210400-
SOUTHWEST ARKANSAS

CITY           SKY/WX    TMP DP  RH WIND       PRES   REMARKS
ARKADELPHIA    LGT RAIN  60  59  96 NE3       29.92F
CAMDEN         LGT RAIN  59  55  88 NW3       29.92F
TEXARKANA      LGT RAIN  58  58 100 W9        29.95R
EL DORADO      LGT RAIN  59  58  96 CALM      29.96R
DE QUEEN       CLOUDY    59  59 100 S3        29.91F
$$

ARZ056-057-069-210400-
SOUTHEAST ARKANSAS

CITY           SKY/WX    TMP DP  RH WIND       PRES   REMARKS
PINE BLUFF     RAIN      61  59  93 W10       29.92S
STUTTGART      CLOUDY    64  55  72 W14       29.92F
MONTICELLO     RAIN      61  58  90 W14G23    29.92S FOG

$$






USA.gov is the U.S. government's official web portal to all federal, state and local government web resources and services.